Station Historical Data
Daily Summary for October 21, 2017 Units:  English    Metric   Both
« Previous Day
Next Day »
Daily Weekly Monthly Yearly Custom
  High: Low: Average:
Temperature: 74.3 °F 50.5 °F 61.6 °F
Dew Point: 58.5 °F 47.0 °F 52.3 °F
Humidity: 88% 50% 73%
Wind Speed: 11.5mph 2.3mph 6.4mph
Wind Gust: 11.5mph - -
Wind- - ESE
Pressure: 30.33 in 30.24 in -
Precipitation: 0.00 in    
Historical Graphs
 
 
Tabular Data for October 21, 2017
Time Temperature Dew Point Pressure Wind Wind Speed Wind Gust Humidity Rainfall Rate (Hourly) Conditions
00:02 54.5 °F 49.8 °F 30.25 in SE 6.9 mph 6.9 mph 84% 0.00 in CLR
00:07 54.3 °F 49.6 °F 30.25 in SE 6.9 mph 6.9 mph 84% 0.00 in CLR
00:12 54.3 °F 49.6 °F 30.25 in SE 6.9 mph 6.9 mph 84% 0.00 in CLR
00:17 54.2 °F 49.8 °F 30.25 in SE 6.9 mph 6.9 mph 85% 0.00 in CLR
00:22 54.2 °F 49.8 °F 30.25 in SE 6.9 mph 6.9 mph 85% 0.00 in CLR
00:27 54.2 °F 49.8 °F 30.25 in SE 6.9 mph 6.9 mph 85% 0.00 in CLR
00:32 54.2 °F 49.8 °F 30.25 in SE 6.9 mph 6.9 mph 85% 0.00 in CLR
00:37 54.6 °F 50.2 °F 30.24 in SE 6.9 mph 6.9 mph 85% 0.00 in CLR
00:42 54.6 °F 49.9 °F 30.24 in SE 6.9 mph 6.9 mph 84% 0.00 in CLR
00:47 54.5 °F 49.4 °F 30.24 in SE 6.9 mph 6.9 mph 83% 0.00 in CLR
00:52 54.3 °F 49.6 °F 30.25 in SE 6.9 mph 6.9 mph 84% 0.00 in CLR
00:57 54.2 °F 49.5 °F 30.25 in SE 6.9 mph 6.9 mph 84% 0.00 in CLR
01:02 54.2 °F 49.5 °F 30.25 in SE 6.9 mph 6.9 mph 84% 0.00 in CLR
01:07 54.1 °F 49.7 °F 30.25 in SE 6.9 mph 6.9 mph 85% 0.00 in CLR
01:18 54.0 °F 49.6 °F 30.25 in SE 6.9 mph 6.9 mph 85% 0.00 in CLR
01:23 53.9 °F 49.5 °F 30.25 in SE 6.9 mph 6.9 mph 85% 0.00 in CLR
01:28 53.9 °F 49.2 °F 30.25 in SE 6.9 mph 6.9 mph 84% 0.00 in CLR
01:33 53.9 °F 49.2 °F 30.25 in SE 6.9 mph 6.9 mph 84% 0.00 in CLR
01:38 53.9 °F 48.9 °F 30.25 in SE 6.9 mph 6.9 mph 83% 0.00 in CLR
01:43 54.0 °F 49.3 °F 30.25 in SE 6.9 mph 6.9 mph 84% 0.00 in CLR
01:48 54.0 °F 49.3 °F 30.25 in SE 6.9 mph 6.9 mph 84% 0.00 in CLR
01:53 53.9 °F 49.2 °F 30.25 in SE 6.9 mph 6.9 mph 84% 0.00 in CLR
01:58 53.8 °F 49.1 °F 30.25 in SE 6.9 mph 6.9 mph 84% 0.00 in CLR
02:03 53.8 °F 49.4 °F 30.25 in SE 6.9 mph 6.9 mph 85% 0.00 in CLR
02:08 53.8 °F 49.4 °F 30.25 in SE 6.9 mph 6.9 mph 85% 0.00 in CLR
02:13 53.7 °F 49.3 °F 30.25 in SE 6.9 mph 6.9 mph 85% 0.00 in CLR
02:18 53.6 °F 49.2 °F 30.25 in SE 6.9 mph 6.9 mph 85% 0.00 in CLR
02:23 53.7 °F 49.0 °F 30.25 in SE 6.9 mph 6.9 mph 84% 0.00 in CLR
02:28 53.7 °F 49.3 °F 30.25 in SE 6.9 mph 6.9 mph 85% 0.00 in CLR
02:33 53.7 °F 49.0 °F 30.25 in SE 6.9 mph 6.9 mph 84% 0.00 in CLR
02:38 53.3 °F 48.6 °F 30.25 in SE 6.9 mph 6.9 mph 84% 0.00 in CLR
02:43 53.0 °F 48.6 °F 30.25 in SE 6.9 mph 6.9 mph 85% 0.00 in CLR
02:48 52.9 °F 48.5 °F 30.25 in SE 6.9 mph 6.9 mph 85% 0.00 in CLR
02:53 52.9 °F 48.8 °F 30.25 in SE 6.9 mph 6.9 mph 86% 0.00 in CLR
02:58 52.8 °F 48.7 °F 30.25 in SE 6.9 mph 6.9 mph 86% 0.00 in CLR
03:03 52.8 °F 48.4 °F 30.25 in SE 6.9 mph 6.9 mph 85% 0.00 in CLR
03:09 52.9 °F 48.2 °F 30.25 in SE 6.9 mph 6.9 mph 84% 0.00 in CLR
03:14 53.2 °F 48.2 °F 30.25 in SE 6.9 mph 6.9 mph 83% 0.00 in CLR
03:20 53.6 °F 48.6 °F 30.25 in SE 6.9 mph 6.9 mph 83% 0.00 in CLR
03:25 53.7 °F 48.3 °F 30.25 in SE 6.9 mph   82% 0.00 in CLR
03:30 53.7 °F 48.7 °F 30.25 in SE 7.0 mph 7.0 mph 83% 0.00 in CLR
03:35 53.6 °F 48.6 °F 30.25 in SE 7.0 mph 7.0 mph 83% 0.00 in CLR
03:40 53.4 °F 48.4 °F 30.25 in SE 7.0 mph 7.0 mph 83% 0.00 in CLR
03:45 53.4 °F 48.7 °F 30.25 in SE 7.0 mph 7.0 mph 84% 0.00 in CLR
03:50 53.2 °F 48.5 °F 30.25 in SE 7.0 mph 7.0 mph 84% 0.00 in CLR
03:55 52.8 °F 48.1 °F 30.26 in SE 7.0 mph 7.0 mph 84% 0.00 in CLR
04:00 52.6 °F 48.2 °F 30.25 in SE 7.0 mph 7.0 mph 85% 0.00 in CLR
04:05 52.4 °F 48.3 °F 30.25 in SE 7.0 mph 7.0 mph 86% 0.00 in CLR
04:10 52.3 °F 48.2 °F 30.25 in SE 6.9 mph 6.9 mph 86% 0.00 in CLR
04:15 52.0 °F 47.9 °F 30.25 in SE 6.9 mph   86% 0.00 in CLR
04:20 51.8 °F 47.7 °F 30.25 in SE 6.9 mph 6.9 mph 86% 0.00 in CLR
04:25 51.7 °F 48.0 °F 30.25 in SE 7.0 mph 7.0 mph 87% 0.00 in CLR
04:30 51.5 °F 47.8 °F 30.25 in SE 7.0 mph 7.0 mph 87% 0.00 in CLR
04:35 51.5 °F 47.8 °F 30.25 in SE 6.9 mph   87% 0.00 in CLR
04:40 51.5 °F 48.1 °F 30.25 in SE 6.9 mph 6.9 mph 88% 0.00 in CLR
04:45 51.5 °F 48.1 °F 30.25 in SE 6.9 mph 6.9 mph 88% 0.00 in CLR
04:50 51.5 °F 48.1 °F 30.25 in SE 6.9 mph 6.9 mph 88% 0.00 in CLR
04:51 51.5 °F 48.1 °F 30.25 in SE 6.9 mph 6.9 mph 88% 0.00 in CLR
04:56 51.5 °F 48.1 °F 30.25 in SE 6.9 mph 6.9 mph 88% 0.00 in CLR
05:01 51.6 °F 48.2 °F 30.25 in SE 6.9 mph 6.9 mph 88% 0.00 in CLR
05:06 51.6 °F 48.2 °F 30.25 in SE 6.9 mph 6.9 mph 88% 0.00 in CLR
05:11 51.7 °F 48.0 °F 30.25 in SE 6.9 mph 6.9 mph 87% 0.00 in CLR
05:16 51.8 °F 47.7 °F 30.26 in SE 6.9 mph 6.9 mph 86% 0.00 in CLR
05:21 52.1 °F 48.0 °F 30.26 in SE 6.9 mph 6.9 mph 86% 0.00 in CLR
05:26 52.2 °F 48.1 °F 30.26 in SE 6.9 mph 6.9 mph 86% 0.00 in CLR
05:31 52.2 °F 48.1 °F 30.26 in SE 6.9 mph 6.9 mph 86% 0.00 in CLR
05:36 52.2 °F 48.1 °F 30.26 in SE 6.9 mph 6.9 mph 86% 0.00 in CLR
05:41 52.1 °F 48.0 °F 30.26 in SE 6.9 mph 6.9 mph 86% 0.00 in CLR
05:46 52.0 °F 47.9 °F 30.27 in SE 6.9 mph 6.9 mph 86% 0.00 in CLR
05:51 52.0 °F 47.9 °F 30.27 in SE 6.9 mph 6.9 mph 86% 0.00 in CLR
05:56 52.0 °F 48.3 °F 30.27 in SE 6.9 mph 6.9 mph 87% 0.00 in CLR
06:01 51.9 °F 47.8 °F 30.27 in SE 6.9 mph 6.9 mph 86% 0.00 in CLR
06:06 51.8 °F 47.7 °F 30.28 in SE 6.9 mph 6.9 mph 86% 0.00 in CLR
06:11 51.9 °F 47.5 °F 30.28 in SE 6.9 mph 6.9 mph 85% 0.00 in CLR
06:16 51.9 °F 47.5 °F 30.28 in SE 6.9 mph 6.9 mph 85% 0.00 in CLR
06:21 51.9 °F 47.8 °F 30.28 in SE 6.9 mph 6.9 mph 86% 0.00 in CLR
06:26 51.7 °F 47.6 °F 30.28 in SE 6.9 mph 6.9 mph 86% 0.00 in CLR
06:31 51.5 °F 47.5 °F 30.28 in SE 6.9 mph 6.9 mph 86% 0.00 in CLR
06:36 51.2 °F 47.5 °F 30.29 in SE 6.9 mph 6.9 mph 87% 0.00 in CLR
06:41 51.0 °F 47.3 °F 30.29 in SE 6.9 mph 6.9 mph 87% 0.00 in CLR
06:46 50.8 °F 47.1 °F 30.29 in SE 6.9 mph 6.9 mph 87% 0.00 in CLR
06:51 50.7 °F 47.3 °F 30.29 in SE 6.9 mph 6.9 mph 88% 0.00 in CLR
06:56 50.6 °F 47.2 °F 30.29 in SE 6.9 mph 6.9 mph 88% 0.00 in CLR
07:02 50.5 °F 47.1 °F 30.29 in ESE 6.9 mph 6.9 mph 88% 0.00 in BKN
07:07 50.5 °F 47.1 °F 30.29 in ESE 2.3 mph 2.3 mph 88% 0.00 in BKN
07:12 50.5 °F 47.1 °F 30.29 in ESE 2.3 mph 2.3 mph 88% 0.00 in BKN
07:17 50.5 °F 47.1 °F 30.29 in ESE 2.3 mph 2.3 mph 88% 0.00 in BKN
07:22 50.5 °F 47.1 °F 30.29 in ESE 2.3 mph 2.3 mph 88% 0.00 in BKN
07:27 50.6 °F 47.2 °F 30.29 in ESE 2.3 mph 2.3 mph 88% 0.00 in BKN
07:32 50.6 °F 47.2 °F 30.29 in ESE 2.3 mph 2.3 mph 88% 0.00 in BKN
07:37 50.6 °F 47.2 °F 30.29 in ESE 2.3 mph 2.3 mph 88% 0.00 in BKN
07:42 50.7 °F 47.0 °F 30.29 in ESE 2.3 mph 2.3 mph 87% 0.00 in BKN
07:47 50.7 °F 47.0 °F 30.29 in ESE 2.3 mph 2.3 mph 87% 0.00 in BKN
07:52 50.8 °F 47.1 °F 30.30 in ESE 2.3 mph 2.3 mph 87% 0.00 in BKN
07:57 50.9 °F 47.2 °F 30.30 in ESE 2.3 mph 2.3 mph 87% 0.00 in BKN
08:02 50.9 °F 47.2 °F 30.30 in ESE 2.3 mph 2.3 mph 87% 0.00 in BKN
08:07 50.9 °F 47.2 °F 30.30 in ESE 2.3 mph 2.3 mph 87% 0.00 in BKN
08:12 51.0 °F 47.3 °F 30.30 in ESE 2.3 mph 2.3 mph 87% 0.00 in BKN
08:17 51.0 °F 47.3 °F 30.30 in ESE 2.3 mph 2.3 mph 87% 0.00 in BKN
08:22 51.1 °F 47.4 °F 30.30 in ESE 2.3 mph 2.3 mph 87% 0.00 in BKN
08:27 51.1 °F 47.4 °F 30.30 in ESE 2.3 mph 2.3 mph 87% 0.00 in BKN
08:32 51.2 °F 47.5 °F 30.31 in ESE 2.3 mph 2.3 mph 87% 0.00 in BKN
08:37 51.3 °F 47.9 °F 30.31 in ESE 2.3 mph 2.3 mph 88% 0.00 in BKN
08:42 51.4 °F 48.0 °F 30.31 in ESE 2.3 mph 2.3 mph 88% 0.00 in BKN
08:47 51.5 °F 48.1 °F 30.31 in ESE 2.3 mph 2.3 mph 88% 0.00 in BKN
08:52 51.7 °F 48.3 °F 30.31 in ESE 2.3 mph 2.3 mph 88% 0.00 in BKN
08:57 51.9 °F 48.5 °F 30.31 in ESE 2.3 mph 2.3 mph 88% 0.00 in BKN
09:03 52.2 °F 48.4 °F 30.32 in NNE 2.3 mph 2.3 mph 87% 0.00 in BKN
09:08 52.5 °F 49.0 °F 30.32 in NNE 2.3 mph 2.3 mph 88% 0.00 in BKN
09:13 52.9 °F 49.1 °F 30.32 in NNE 2.3 mph 2.3 mph 87% 0.00 in BKN
09:18 53.3 °F 49.5 °F 30.32 in NNE 2.3 mph 2.3 mph 87% 0.00 in BKN
09:23 53.9 °F 49.8 °F 30.32 in NNE 2.3 mph 2.3 mph 86% 0.00 in BKN
09:28 54.6 °F 50.5 °F 30.32 in NNE 2.3 mph 2.3 mph 86% 0.00 in BKN
09:33 55.1 °F 50.4 °F 30.33 in NNE 2.3 mph 2.3 mph 84% 0.00 in BKN
09:38 55.9 °F 50.8 °F 30.33 in NNE 2.3 mph 2.3 mph 83% 0.00 in BKN
09:43 56.7 °F 50.6 °F 30.33 in NNE 2.3 mph 2.3 mph 80% 0.00 in BKN
09:48 57.7 °F 51.2 °F 30.33 in NNE 2.3 mph 2.3 mph 79% 0.00 in BKN
09:53 58.5 °F 51.7 °F 30.33 in NNE 2.3 mph 2.3 mph 78% 0.00 in BKN
09:58 59.2 °F 52.0 °F 30.33 in NNE 2.3 mph 2.3 mph 77% 0.00 in BKN
10:03 59.8 °F 52.2 °F 30.33 in East 3.5 mph 3.5 mph 76% 0.00 in BKN
10:05 60.0 °F 52.4 °F 30.33 in East 3.5 mph 3.5 mph 76% 0.00 in BKN
10:10 60.4 °F 52.4 °F 30.33 in East 3.5 mph 3.5 mph 75% 0.00 in BKN
10:15 60.8 °F 52.8 °F 30.33 in East 3.5 mph 3.5 mph 75% 0.00 in BKN
10:20 61.2 °F 53.2 °F 30.33 in East 3.5 mph 3.5 mph 75% 0.00 in BKN
10:25 61.7 °F 53.3 °F 30.33 in East 3.5 mph 3.5 mph 74% 0.00 in BKN
10:30 62.1 °F 53.7 °F 30.33 in East 3.5 mph 3.5 mph 74% 0.00 in BKN
10:35 62.8 °F 54.0 °F 30.33 in East 3.5 mph 3.5 mph 73% 0.00 in BKN
10:40 63.4 °F 54.2 °F 30.33 in East 3.5 mph 3.5 mph 72% 0.00 in BKN
10:45 64.3 °F 55.5 °F 30.33 in East 3.5 mph 3.5 mph 73% 0.00 in BKN
10:51 65.4 °F 56.1 °F 30.33 in East 3.5 mph 3.5 mph 72% 0.00 in BKN
10:56 66.5 °F 56.0 °F 30.33 in East 3.5 mph 3.5 mph 69% 0.00 in BKN
11:01 66.7 °F 56.2 °F 30.33 in East 3.5 mph 3.5 mph 69% 0.00 in BKN
11:06 66.9 °F 56.4 °F 30.33 in East 5.8 mph 5.8 mph 69% 0.00 in BKN
11:11 67.3 °F 57.2 °F 30.33 in East 5.8 mph 5.8 mph 70% 0.00 in BKN
11:16 67.9 °F 57.4 °F 30.32 in East 5.8 mph 5.8 mph 69% 0.00 in BKN
11:21 68.4 °F 57.0 °F 30.32 in East 5.8 mph 5.8 mph 67% 0.00 in BKN
11:26 68.9 °F 57.1 °F 30.32 in East 5.8 mph 5.8 mph 66% 0.00 in BKN
11:31 69.5 °F 58.5 °F 30.33 in East 5.8 mph 5.8 mph 68% 0.00 in BKN
11:36 70.0 °F 58.1 °F 30.33 in East 5.8 mph 5.8 mph 66% 0.00 in BKN
11:41 70.8 °F 57.6 °F 30.32 in East 5.8 mph 5.8 mph 63% 0.00 in BKN
11:46 71.5 °F 57.8 °F 30.32 in East 5.8 mph 5.8 mph 62% 0.00 in BKN
11:51 71.0 °F 57.3 °F 30.32 in East 5.8 mph 5.8 mph 62% 0.00 in BKN
11:52 71.0 °F 57.3 °F 30.32 in East 5.8 mph 5.8 mph 62% 0.00 in BKN
11:57 70.9 °F 57.7 °F 30.32 in East 5.8 mph 5.8 mph 63% 0.00 in BKN
12:02 70.9 °F 58.1 °F 30.32 in East 5.8 mph 5.8 mph 64% 0.00 in BKN
12:07 70.6 °F 57.4 °F 30.32 in East 5.8 mph 5.8 mph 63% 0.00 in BKN
12:12 70.5 °F 56.4 °F 30.32 in ESE 6.9 mph 6.9 mph 61% 0.00 in BKN
12:17 70.8 °F 57.1 °F 30.32 in ESE 6.9 mph 6.9 mph 62% 0.00 in BKN
12:22 71.1 °F 56.0 °F 30.32 in ESE 6.9 mph 6.9 mph 59% 0.00 in BKN
12:27 71.2 °F 57.5 °F 30.32 in ESE 6.9 mph 6.9 mph 62% 0.00 in BKN
12:32 71.2 °F 57.1 °F 30.32 in ESE 6.9 mph 6.9 mph 61% 0.00 in BKN
12:37 71.1 °F 55.6 °F 30.32 in ESE 6.9 mph 6.9 mph 58% 0.00 in BKN
12:42 71.0 °F 55.5 °F 30.32 in ESE 6.9 mph 6.9 mph 58% 0.00 in BKN
12:47 71.1 °F 56.0 °F 30.32 in ESE 6.9 mph 6.9 mph 59% 0.00 in BKN
12:52 71.1 °F 55.6 °F 30.32 in ESE 6.9 mph 6.9 mph 58% 0.00 in BKN
12:57 71.3 °F 56.2 °F 30.32 in ESE 6.9 mph 6.9 mph 59% 0.00 in BKN
13:02 71.3 °F 56.2 °F 30.31 in ESE 6.9 mph 6.9 mph 59% 0.00 in BKN
13:12 71.3 °F 55.8 °F 30.31 in ESE 6.9 mph 6.9 mph 58% 0.00 in BKN
13:17 71.4 °F 56.3 °F 30.31 in ESE 6.9 mph 6.9 mph 59% 0.00 in BKN
13:22 71.6 °F 55.6 °F 30.30 in ESE 6.9 mph 6.9 mph 57% 0.00 in BKN
13:27 71.8 °F 55.3 °F 30.30 in ESE 6.9 mph 6.9 mph 56% 0.00 in BKN
13:33 72.2 °F 55.6 °F 30.30 in ESE 6.9 mph 6.9 mph 56% 0.00 in BKN
13:38 72.3 °F 54.7 °F 30.29 in ESE 6.9 mph 6.9 mph 54% 0.00 in BKN
13:43 72.6 °F 55.5 °F 30.29 in ESE 6.9 mph 6.9 mph 55% 0.00 in BKN
13:48 73.1 °F 54.4 °F 30.29 in ESE 6.9 mph 6.9 mph 52% 0.00 in BKN
13:53 73.4 °F 54.2 °F 30.29 in ESE 6.9 mph 6.9 mph 51% 0.00 in BKN
13:58 73.5 °F 55.3 °F 30.28 in ESE 6.9 mph 6.9 mph 53% 0.00 in BKN
14:03 73.7 °F 55.0 °F 30.28 in ESE 9.2 mph 9.2 mph 52% 0.00 in BKN
14:08 73.9 °F 55.2 °F 30.28 in ESE 9.2 mph 9.2 mph 52% 0.00 in BKN
14:13 74.3 °F 55.0 °F 30.28 in ESE 9.2 mph 9.2 mph 51% 0.00 in BKN
14:18 74.3 °F 56.1 °F 30.28 in ESE 9.2 mph 9.2 mph 53% 0.00 in BKN
14:23 74.0 °F 55.8 °F 30.28 in ESE 9.2 mph 9.2 mph 53% 0.00 in BKN
14:28 73.6 °F 55.4 °F 30.28 in ESE 9.2 mph 9.2 mph 53% 0.00 in BKN
14:33 73.5 °F 55.8 °F 30.27 in ESE 9.2 mph 9.2 mph 54% 0.00 in BKN
14:38 73.5 °F 55.8 °F 30.27 in ESE 9.2 mph 9.2 mph 54% 0.00 in BKN
14:43 73.5 °F 55.8 °F 30.27 in ESE 9.2 mph 9.2 mph 54% 0.00 in BKN
14:48 73.6 °F 56.4 °F 30.27 in ESE 9.2 mph 9.2 mph 55% 0.00 in BKN
14:53 73.5 °F 55.8 °F 30.27 in ESE 9.2 mph 9.2 mph 54% 0.00 in BKN
14:58 73.4 °F 56.2 °F 30.27 in ESE 9.2 mph 9.2 mph 55% 0.00 in BKN
15:04 73.4 °F 57.2 °F 30.27 in ESE 10.4 mph 10.4 mph 57% 0.00 in BKN
15:09 73.5 °F 56.8 °F 30.27 in ESE 10.4 mph 10.4 mph 56% 0.00 in BKN
15:14 73.5 °F 55.3 °F 30.27 in ESE 10.4 mph 10.4 mph 53% 0.00 in BKN
15:19 73.3 °F 54.6 °F 30.26 in ESE 10.4 mph 10.4 mph 52% 0.00 in BKN
15:24 73.4 °F 55.2 °F 30.26 in ESE 10.4 mph 10.4 mph 53% 0.00 in BKN
15:29 73.6 °F 55.4 °F 30.26 in ESE 10.4 mph 10.4 mph 53% 0.00 in BKN
15:34 73.8 °F 57.1 °F 30.26 in ESE 10.4 mph 10.4 mph 56% 0.00 in BKN
15:39 73.7 °F 53.9 °F 30.26 in ESE 10.4 mph 10.4 mph 50% 0.00 in BKN
15:41 73.6 °F 54.9 °F 30.26 in ESE 10.4 mph 10.4 mph 52% 0.00 in BKN
15:46 73.7 °F 54.4 °F 30.26 in ESE 10.4 mph 10.4 mph 51% 0.00 in BKN
15:47 73.6 °F 54.4 °F 30.26 in ESE 10.4 mph 10.4 mph 51% 0.00 in BKN
15:52 73.7 °F 54.4 °F 30.25 in ESE 10.4 mph 10.4 mph 51% 0.00 in BKN
15:57 73.6 °F 54.9 °F 30.26 in ESE 10.4 mph 10.4 mph 52% 0.00 in BKN
16:02 73.6 °F 55.9 °F 30.26 in ESE 10.4 mph 10.4 mph 54% 0.00 in OVC
16:07 73.5 °F 54.8 °F 30.26 in ESE 10.4 mph 10.4 mph 52% 0.00 in OVC
16:12 73.5 °F 54.8 °F 30.25 in ESE 10.4 mph 10.4 mph 52% 0.00 in CLR
16:17 73.4 °F 54.7 °F 30.25 in ESE 6.9 mph 6.9 mph 52% 0.00 in CLR
16:22 73.3 °F 55.1 °F 30.26 in ESE 6.9 mph 6.9 mph 53% 0.00 in CLR
16:27 73.4 °F 54.7 °F 30.26 in ESE 6.9 mph 6.9 mph 52% 0.00 in CLR
16:32 73.6 °F 56.4 °F 30.26 in ESE 6.9 mph 6.9 mph 55% 0.00 in CLR
16:37 73.6 °F 54.4 °F 30.26 in ESE 6.9 mph 6.9 mph 51% 0.00 in CLR
16:48 73.7 °F 56.0 °F 30.26 in ESE 6.9 mph 6.9 mph 54% 0.00 in CLR
16:53 73.6 °F 55.9 °F 30.26 in ESE 6.9 mph 6.9 mph 54% 0.00 in CLR
16:58 73.6 °F 54.9 °F 30.26 in ESE 6.9 mph 6.9 mph 52% 0.00 in CLR
17:03 73.5 °F 56.3 °F 30.26 in East 11.5 mph 11.5 mph 55% 0.00 in BKN
17:08 73.2 °F 54.5 °F 30.26 in East 11.5 mph 11.5 mph 52% 0.00 in BKN
17:13 73.1 °F 53.9 °F 30.26 in East 11.5 mph 11.5 mph 51% 0.00 in BKN
17:18 73.1 °F 54.4 °F 30.26 in East 11.5 mph 11.5 mph 52% 0.00 in BKN
17:23 72.8 °F 54.7 °F 30.26 in East 11.5 mph 11.5 mph 53% 0.00 in BKN
17:28 72.5 °F 54.9 °F 30.26 in East 11.5 mph 11.5 mph 54% 0.00 in BKN
17:33 72.1 °F 55.0 °F 30.26 in East 11.5 mph 11.5 mph 55% 0.00 in BKN
17:38 72.0 °F 53.9 °F 30.26 in East 11.5 mph 11.5 mph 53% 0.00 in BKN
17:43 71.9 °F 54.3 °F 30.26 in East 11.5 mph 11.5 mph 54% 0.00 in BKN
17:48 71.6 °F 55.1 °F 30.26 in East 11.5 mph 11.5 mph 56% 0.00 in BKN
17:53 71.4 °F 55.4 °F 30.27 in East 11.5 mph 11.5 mph 57% 0.00 in BKN
17:58 71.0 °F 55.9 °F 30.27 in East 11.5 mph 11.5 mph 59% 0.00 in BKN
18:03 70.6 °F 55.6 °F 30.27 in East 5.8 mph 5.8 mph 59% 0.00 in BKN
18:08 70.4 °F 54.9 °F 30.27 in East 5.8 mph 5.8 mph 58% 0.00 in BKN
18:13 70.1 °F 55.6 °F 30.27 in East 5.8 mph 5.8 mph 60% 0.00 in BKN
18:18 69.6 °F 56.0 °F 30.27 in East 5.8 mph 5.8 mph 62% 0.00 in BKN
18:24 69.2 °F 56.1 °F 30.27 in East 5.8 mph 5.8 mph 63% 0.00 in BKN
18:29 68.8 °F 56.1 °F 30.27 in East 5.8 mph 5.8 mph 64% 0.00 in BKN
18:34 68.5 °F 55.8 °F 30.27 in East 5.8 mph 5.8 mph 64% 0.00 in BKN
18:39 68.2 °F 56.0 °F 30.27 in East 5.8 mph 5.8 mph 65% 0.00 in BKN
18:44 67.9 °F 56.1 °F 30.27 in East 5.8 mph 5.8 mph 66% 0.00 in BKN
18:49 67.5 °F 55.7 °F 30.27 in East 5.8 mph 5.8 mph 66% 0.00 in BKN
18:54 67.2 °F 55.9 °F 30.27 in East 5.8 mph 5.8 mph 67% 0.00 in BKN
18:59 67.0 °F 56.1 °F 30.27 in East 5.8 mph 5.8 mph 68% 0.00 in BKN
19:04 66.8 °F 55.5 °F 30.27 in East 5.8 mph 5.8 mph 67% 0.00 in BKN
19:09 66.6 °F 55.7 °F 30.27 in East 5.8 mph 5.8 mph 68% 0.00 in BKN
19:14 66.3 °F 55.8 °F 30.27 in East 5.8 mph 5.8 mph 69% 0.00 in BKN
19:19 65.9 °F 55.4 °F 30.27 in East 5.8 mph 5.8 mph 69% 0.00 in BKN
19:24 65.6 °F 55.5 °F 30.27 in East 5.8 mph 5.8 mph 70% 0.00 in BKN
19:29 65.4 °F 55.4 °F 30.27 in East 5.8 mph 5.8 mph 70% 0.00 in BKN
19:34 65.1 °F 55.5 °F 30.27 in East 5.8 mph 5.8 mph 71% 0.00 in BKN
19:39 64.9 °F 55.3 °F 30.28 in East 5.8 mph 5.8 mph 71% 0.00 in BKN
19:44 64.6 °F 55.0 °F 30.28 in East 5.8 mph 5.8 mph 71% 0.00 in BKN
19:49 64.3 °F 54.3 °F 30.28 in East 5.8 mph 5.8 mph 70% 0.00 in BKN
19:55 64.3 °F 54.3 °F 30.28 in East 5.8 mph 5.8 mph 70% 0.00 in BKN
20:00 64.3 °F 54.3 °F 30.28 in East 5.8 mph 5.8 mph 70% 0.00 in BKN
20:05 64.3 °F 54.3 °F 30.28 in East 8.1 mph 8.1 mph 70% 0.00 in BKN
20:10 64.2 °F 54.2 °F 30.28 in East 8.1 mph 8.1 mph 70% 0.00 in BKN
20:15 64.1 °F 54.1 °F 30.28 in East 8.0 mph 8.0 mph 70% 0.00 in BKN
20:20 64.0 °F 54.4 °F 30.28 in East 8.0 mph 8.0 mph 71% 0.00 in BKN
20:25 63.9 °F 53.9 °F 30.29 in East 8.1 mph 8.1 mph 70% 0.00 in BKN
20:30 63.7 °F 54.1 °F 30.29 in East 8.1 mph 8.1 mph 71% 0.00 in BKN
20:35 63.6 °F 54.0 °F 30.28 in East 8.0 mph 8.0 mph 71% 0.00 in BKN
20:40 63.4 °F 54.2 °F 30.28 in East 8.0 mph 8.0 mph 72% 0.00 in BKN
20:45 63.3 °F 53.7 °F 30.28 in East 8.0 mph 8.0 mph 71% 0.00 in BKN
20:50 63.4 °F 53.4 °F 30.28 in East 8.0 mph 8.0 mph 70% 0.00 in BKN
20:55 63.4 °F 53.8 °F 30.28 in East 8.1 mph 8.1 mph 71% 0.00 in BKN
21:00 63.3 °F 53.7 °F 30.28 in East 8.0 mph 8.0 mph 71% 0.00 in BKN
21:05 63.2 °F 53.6 °F 30.28 in East 7.0 mph 8.0 mph 71% 0.00 in BKN
21:10 63.1 °F 53.6 °F 30.28 in East 7.0 mph 7.0 mph 71% 0.00 in BKN
21:15 63.0 °F 53.4 °F 30.28 in East 7.0 mph 7.0 mph 71% 0.00 in BKN
21:20 63.0 °F 53.4 °F 30.28 in East 7.0 mph 7.0 mph 71% 0.00 in BKN
21:25 62.8 °F 53.3 °F 30.28 in East 6.9 mph 6.9 mph 71% 0.00 in BKN
21:30 62.7 °F 53.5 °F 30.28 in East 6.9 mph 6.9 mph 72% 0.00 in BKN
21:35 62.6 °F 53.4 °F 30.28 in East 7.0 mph 7.0 mph 72% 0.00 in BKN
21:40 62.5 °F 53.7 °F 30.28 in East 7.0 mph 7.0 mph 73% 0.00 in BKN
21:45 62.4 °F 53.6 °F 30.28 in East 7.0 mph 7.0 mph 73% 0.00 in BKN
21:50 62.2 °F 53.4 °F 30.28 in East 6.9 mph 6.9 mph 73% 0.00 in BKN
21:55 62.4 °F 53.6 °F 30.28 in East 6.9 mph 6.9 mph 73% 0.00 in BKN
22:00 62.5 °F 53.7 °F 30.29 in East 7.0 mph 7.0 mph 73% 0.00 in BKN
22:05 62.4 °F 54.0 °F 30.29 in East 4.6 mph 4.6 mph 74% 0.00 in BKN
22:10 62.2 °F 53.9 °F 30.30 in East 5.0 mph 5.0 mph 74% 0.00 in BKN
22:15 62.1 °F 54.1 °F 30.30 in East 4.6 mph 4.6 mph 75% 0.00 in BKN
22:20 61.9 °F 53.9 °F 30.30 in East 5.0 mph 5.0 mph 75% 0.00 in BKN
22:25 61.7 °F 54.0 °F 30.30 in East 5.0 mph 5.0 mph 76% 0.00 in BKN
22:30 61.5 °F 54.2 °F 30.30 in East 5.0 mph 5.0 mph 77% 0.00 in BKN
22:35 61.3 °F 53.7 °F 30.30 in East 5.0 mph 5.0 mph 76% 0.00 in BKN
22:40 61.3 °F 54.0 °F 30.30 in East 5.0 mph 5.0 mph 77% 0.00 in BKN
22:45 61.2 °F 53.9 °F 30.30 in East 5.0 mph 5.0 mph 77% 0.00 in BKN
22:50 61.0 °F 53.7 °F 30.30 in East 5.0 mph 5.0 mph 77% 0.00 in BKN
22:55 60.8 °F 53.5 °F 30.30 in East 4.6 mph 4.6 mph 77% 0.00 in BKN
23:00 60.7 °F 53.8 °F 30.30 in East 5.0 mph 5.0 mph 78% 0.00 in BKN
23:05 60.6 °F 53.7 °F 30.30 in East 5.0 mph 5.0 mph 78% 0.00 in BKN
23:10 60.5 °F 53.6 °F 30.30 in East 5.0 mph 5.0 mph 78% 0.00 in BKN
23:16 60.5 °F 54.0 °F 30.30 in East 4.6 mph 4.6 mph 79% 0.00 in BKN
23:21 60.3 °F 53.8 °F 30.30 in East 4.6 mph 4.6 mph 79% 0.00 in BKN
23:23 60.3 °F 53.8 °F 30.30 in East 4.6 mph 4.6 mph 79% 0.00 in BKN
23:27 60.2 °F 54.0 °F 30.30 in East 4.6 mph 4.6 mph 80% 0.00 in BKN
23:28 60.1 °F 53.9 °F 30.30 in East 4.6 mph 4.6 mph 80% 0.00 in BKN
23:31 60.0 °F 53.8 °F 30.30 in East 4.6 mph 4.6 mph 80% 0.00 in BKN
23:33 60.0 °F 53.8 °F 30.30 in East 4.6 mph 4.6 mph 80% 0.00 in BKN
23:38 59.9 °F 53.7 °F 30.30 in East 4.6 mph 4.6 mph 80% 0.00 in BKN
23:43 59.8 °F 53.6 °F 30.30 in East 4.6 mph 4.6 mph 80% 0.00 in BKN
23:48 59.8 °F 54.0 °F 30.30 in East 4.6 mph 4.6 mph 81% 0.00 in BKN
23:53 59.7 °F 53.9 °F 30.30 in East 4.6 mph 4.6 mph 81% 0.00 in BKN
23:58 59.6 °F 53.8 °F 30.30 in East 4.6 mph 4.6 mph 81% 0.00 in BKN
Piedmont Bend
Compliments of Weather Underground - 2 mb